[[{"header":{"parameterUnit":"m.s-1","parameterCategory":1,"la1":30.2991,"la2":30.254,"lo1":-89.0895,"lo2":-89.0444,"dy":0.0017,"dx":0.0017,"nx":28,"ny":28,"refTime":"2024-06-07T03:00:00:Z","depth":0,"parameterNumber":2,"parameterNumberName":"U-component_of_WINDS"},"data":[0,0,0,0,0,0,0,0,0,0,0,0,0,0,0,0,0,0,0,0,0,0,0,0,0,0,0,0,0,0,0,0,0,0,0,0,0,0,0,0,0,0,0,0,0,0,0,0,0,0,0,0,0,0,0,0,0,0,1.3446,1.3447,0,1.358,1.3581,1.3583,1.3616,1.3615,1.3614,1.3613,1.3753,1.3758,1.3762,0,0,0,0,0,0,0,0,0,0,0,0,0,1.3218,1.3222,1.3445,1.3447,1.3449,1.358,1.3581,1.3583,1.3616,1.3615,1.3614,1.3613,1.3752,1.3757,1.3763,0,0,0,0,0,0,0,0,0,0,0,0,0,1.3331,1.3224,1.3445,1.3481,1.3485,1.3579,1.3581,1.3584,1.3616,1.3615,1.3613,1.3612,1.375,1.3757,1.3763,1.3832,0,0,1.3784,1.3787,0,0,0,0,0,0,0,0,1.3325,1.334,1.3474,1.3478,1.3484,1.358,1.3553,1.3667,1.3616,1.3566,1.3613,1.3611,1.3697,1.3708,1.3736,1.3839,1.3845,1.3785,1.3789,1.3792,1.3794,0,0,0,0,0,0,0,1.3317,1.3334,1.3499,1.3476,1.3482,1.349,1.3505,1.3575,1.3638,1.3571,1.3573,1.3589,1.3699,1.3729,1.374,1.3847,1.3785,1.3791,1.3795,1.3798,1.4011,1.4013,0,0,0,0,0,0,1.3303,1.3327,1.3494,1.3503,1.3399,1.3495,1.3512,1.355,1.3637,1.3649,1.359,1.359,1.3718,1.3732,1.3745,1.383,1.3792,1.3798,1.3802,1.401,1.4011,1.4013,0,0,0,0,0,0,1.3298,1.3317,1.3489,1.3416,1.3438,1.3501,1.3544,1.3554,1.3584,1.3651,1.3663,1.3609,1.3718,1.3735,1.381,1.3835,1.3801,1.3808,1.4008,1.401,1.4012,1.4001,0,0,0,0,0,0,1.3291,1.3315,1.3342,1.3416,1.3442,1.3551,1.3545,1.3557,1.3595,1.3596,1.3672,1.3684,1.3718,1.3799,1.3816,1.3844,1.3813,1.4006,1.4009,1.4012,1.3999,1.4003,1.4006,0,0,0,0,0,1.3283,1.3335,1.3343,1.3363,1.3477,1.3553,1.3568,1.3606,1.3597,1.3624,1.3667,1.3681,1.3829,1.3807,1.3826,1.3856,1.4004,1.4008,1.4011,1.3998,1.4002,1.4005,0,0,0,0,0,0,1.3263,1.3345,1.3356,1.3433,1.3485,1.3558,1.3594,1.3609,1.3666,1.3665,1.371,1.3727,1.3798,1.3835,1.3808,1.3926,1.3917,1.3924,1.39,1.3904,1.3907,1.3897,1.3819,0,0,0,0,0,1.3267,1.3322,1.3391,1.3452,1.3478,1.3531,1.3566,1.359,1.3647,1.367,1.3718,1.3774,1.3832,1.3871,1.3929,1.4005,1.4021,1.4035,1.4038,1.404,1.4046,1.4088,1.4094,1.4025,1.4025,1.4025,0,0,1.3278,1.3329,1.3361,1.3449,1.3493,1.3549,1.355,1.3609,1.3651,1.3679,1.3752,1.3789,1.3854,1.3929,1.3965,1.3962,1.4069,1.4045,1.4046,1.4051,1.4092,1.4098,1.4104,1.4027,1.4027,1.4026,0,0,1.3324,1.3369,1.3424,1.3467,1.3533,1.3568,1.3581,1.3651,1.3677,1.375,1.3772,1.3822,1.3923,1.3968,1.4004,1.4065,1.4079,1.4083,1.4099,1.4138,1.4144,1.4149,1.417,1.4177,1.4088,1.4088,1.4088,0,1.3329,1.3413,1.3451,1.3508,1.3546,1.3573,1.3629,1.367,1.3751,1.3777,1.3772,1.3898,1.3943,1.4028,1.4043,1.4071,1.4087,1.4074,1.414,1.4145,1.4151,1.4171,1.4179,1.4088,1.4088,1.4088,1.4088,0,1.3414,1.3472,1.3509,1.3585,1.3627,1.3684,1.3731,1.3769,1.3789,1.3824,1.3898,1.3953,1.4022,1.4044,1.4065,1.4132,1.4127,1.4131,1.4122,1.4156,1.4176,1.4184,1.4088,1.4088,1.4088,1.4088,0,0,1.3453,1.3548,1.3561,1.3596,1.3669,1.3715,1.3772,1.3838,1.3869,1.3924,1.3973,1.4057,1.4059,1.41,1.4126,1.4161,1.4204,1.416,1.4162,1.4166,1.428,1.4276,1.4285,1.4214,1.4216,1.4217,1.4274,0,1.3508,1.3611,1.3646,1.3731,1.3784,1.3809,1.3859,1.391,1.3944,1.3994,1.4032,1.409,1.409,1.4114,1.415,1.4191,1.4228,1.4188,1.426,1.4262,1.4242,1.4295,1.4292,1.4343,1.4282,1.4283,1.4284,0,1.3586,1.364,1.373,1.3795,1.3819,1.3863,1.3926,1.3973,1.4031,1.4053,1.4097,1.412,1.4181,1.4168,1.4251,1.4223,1.4255,1.428,1.4283,1.4291,1.4275,1.4304,1.4361,1.4368,1.4297,1.4296,1.4295,0,1.3604,1.37,1.3766,1.3794,1.3872,1.3902,1.3936,1.3992,1.4029,1.4084,1.4108,1.417,1.4203,1.425,1.4289,1.4276,1.4369,1.436,1.4389,1.4388,1.4407,1.4405,1.4469,1.4428,1.4428,1.4428,1.4428,0,1.3661,1.3715,1.3774,1.3815,1.3875,1.3915,1.3974,1.401,1.4059,1.4106,1.4132,1.4177,1.4225,1.4276,1.4307,1.4371,1.4386,1.4405,1.4413,1.4403,1.44,1.4424,1.4421,1.443,1.4429,1.4429,1.4429,0,1.3692,1.3734,1.3807,1.3874,1.3892,1.3933,1.3991,1.4031,1.4065,1.4125,1.4141,1.4196,1.4256,1.4299,1.4378,1.4399,1.4467,1.4475,1.4447,1.4451,1.4477,1.4473,1.4558,1.457,1.4521,1.4522,1.4522,0,1.3725,1.3767,1.3838,1.3871,1.3905,1.3958,1.3995,1.4036,1.4074,1.4141,1.4172,1.4234,1.4286,1.4381,1.4428,1.4488,1.4497,1.4522,1.4506,1.4494,1.4496,1.4493,1.4497,1.4524,1.4525,1.4525,1.4525,0,1.378,1.3798,1.3851,1.391,1.3953,1.4002,1.4051,1.4077,1.4126,1.4167,1.4228,1.4268,1.4347,1.4408,1.4472,1.4507,1.4524,1.4529,1.4539,1.4529,1.4511,1.452,1.4453,1.4528,1.4527,1.4527,1.4527,1.4527,1.3813,1.385,1.3906,1.3963,1.4003,1.4048,1.4088,1.4127,1.4179,1.4245,1.4266,1.433,1.4385,1.4472,1.4508,1.4558,1.4557,1.4571,1.4575,1.4577,1.4576,1.4503,1.457,1.457,1.457,1.457,1.457,0,1.3868,1.3904,1.3956,1.4023,1.4068,1.4079,1.4133,1.417,1.4225,1.4275,1.4324,1.4394,1.4453,1.4503,1.4564,1.4594,1.4603,1.4609,1.4607,1.4614,1.4574,1.4559,1.46,1.46,1.46,1.46,1.46,1.46,1.3902,1.3965,1.399,1.4074,1.411,1.4171,1.4201,1.4243,1.4282,1.4358,1.4407,1.4439,1.4488,1.4553,1.4607,1.462,1.4641,1.4644,1.4659,1.4621,1.4617,1.4614,1.46,1.4648,1.4648,1.4695,1.4695,1.4695]},{"header":{"parameterUnit":"m.s-1","parameterCategory":1,"la1":30.2991,"la2":30.254,"lo1":-89.0895,"lo2":-89.0444,"dy":0.0017,"dx":0.0017,"nx":28,"ny":28,"refTime":"2024-06-07T03:00:00:Z","depth":0,"parameterNumber":3,"parameterNumberName":"V-component_of_WINDS"},"data":[0,0,0,0,0,0,0,0,0,0,0,0,0,0,0,0,0,0,0,0,0,0,0,0,0,0,0,0,0,0,0,0,0,0,0,0,0,0,0,0,0,0,0,0,0,0,0,0,0,0,0,0,0,0,0,0,0,0,3.1031,3.1031,0,3.1104,3.1105,3.1106,3.1066,3.1064,3.1062,3.1061,3.1134,3.1138,3.1142,0,0,0,0,0,0,0,0,0,0,0,0,0,3.085,3.0854,3.103,3.1031,3.1032,3.1104,3.1105,3.1106,3.1067,3.1064,3.1062,3.106,3.1133,3.1137,3.1142,0,0,0,0,0,0,0,0,0,0,0,0,0,3.0927,3.0855,3.103,3.1021,3.1021,3.1104,3.1105,3.1106,3.1067,3.1064,3.1061,3.1059,3.1132,3.1137,3.1143,3.1238,0,0,3.116,3.1163,0,0,0,0,0,0,0,0,3.0922,3.0933,3.1022,3.1022,3.1022,3.1073,3.1069,3.115,3.1068,3.105,3.1061,3.1057,3.1116,3.1123,3.1143,3.1241,3.1244,3.1161,3.1164,3.1167,3.1168,0,0,0,0,0,0,0,3.0917,3.093,3.106,3.1023,3.1023,3.1012,3.1019,3.1084,3.1099,3.1051,3.1049,3.1058,3.1116,3.1138,3.1145,3.1246,3.1161,3.1166,3.1169,3.1171,3.1417,3.142,0,0,0,0,0,0,3.0913,3.0926,3.1057,3.1062,3.0964,3.1018,3.1026,3.106,3.1098,3.1101,3.106,3.1056,3.113,3.1138,3.1147,3.1255,3.1167,3.1172,3.1175,3.1414,3.1418,3.1421,0,0,0,0,0,0,3.0909,3.0925,3.1054,3.0993,3.1009,3.1024,3.1062,3.1063,3.1085,3.1105,3.1107,3.1081,3.1128,3.1139,3.1214,3.1257,3.1175,3.118,3.1411,3.1416,3.142,3.1476,0,0,0,0,0,0,3.0904,3.0924,3.0962,3.0994,3.1012,3.1122,3.1065,3.1066,3.1095,3.109,3.1124,3.1127,3.1126,3.1206,3.122,3.1264,3.1184,3.1407,3.1413,3.1418,3.147,3.1482,3.1492,0,0,0,0,0,3.0898,3.0976,3.0964,3.098,3.106,3.1124,3.1134,3.1132,3.1099,3.1135,3.1147,3.1126,3.1251,3.1214,3.1229,3.1276,3.1404,3.1411,3.1418,3.1465,3.1479,3.1492,0,0,0,0,0,0,3.0949,3.098,3.0967,3.1059,3.1089,3.1118,3.1164,3.1148,3.1189,3.1182,3.1177,3.1185,3.1261,3.1277,3.1234,3.1366,3.1322,3.1333,3.1353,3.1367,3.1377,3.137,3.1189,0,0,0,0,0,3.0971,3.1022,3.1046,3.1124,3.114,3.1149,3.1177,3.1173,3.1204,3.1216,3.1234,3.1264,3.1309,3.134,3.1383,3.1473,3.1477,3.1512,3.1523,3.1532,3.154,3.1582,3.1596,3.1444,3.1444,3.1444,0,0,3.1016,3.104,3.1072,3.1134,3.1157,3.1207,3.116,3.1217,3.1253,3.1225,3.1295,3.1309,3.1342,3.1423,3.146,3.1438,3.1583,3.1541,3.1548,3.1551,3.1591,3.1605,3.1618,3.1449,3.1448,3.1448,0,0,3.1123,3.1149,3.1213,3.1236,3.1271,3.1276,3.1292,3.1322,3.133,3.14,3.1378,3.1421,3.1501,3.1523,3.1545,3.1656,3.1636,3.1671,3.1726,3.1767,3.1779,3.1789,3.1823,3.1836,3.1679,3.1679,3.1679,0,3.1175,3.1251,3.1248,3.1304,3.133,3.1306,3.1369,3.1392,3.1439,3.1456,3.1432,3.1528,3.1549,3.1631,3.1658,3.1679,3.1692,3.1665,3.1778,3.1788,3.1798,3.183,3.1843,3.1683,3.1682,3.1682,3.1682,0,3.1309,3.1362,3.141,3.1453,3.1485,3.1545,3.1548,3.158,3.1572,3.1579,3.1648,3.1672,3.1717,3.1737,3.1731,3.1817,3.1802,3.1779,3.1733,3.1816,3.1845,3.1858,3.1688,3.1687,3.1686,3.1685,0,0,3.1451,3.149,3.1507,3.1524,3.1559,3.1598,3.1655,3.1698,3.1723,3.1756,3.18,3.1867,3.1843,3.1868,3.1864,3.1901,3.1979,3.1871,3.1872,3.1885,3.2069,3.2083,3.2097,3.1967,3.197,3.1972,3.2064,0,3.1555,3.1654,3.1651,3.1742,3.1787,3.1763,3.1812,3.1837,3.1844,3.1882,3.189,3.1934,3.1903,3.1917,3.1953,3.1962,3.2015,3.1956,3.2004,3.2006,3.1991,3.2114,3.213,3.2216,3.2076,3.2078,3.208,0,3.1691,3.1726,3.182,3.1843,3.1862,3.1906,3.1942,3.198,3.2006,3.2009,3.2034,3.2023,3.2077,3.2033,3.2104,3.2064,3.2084,3.2091,3.2094,3.2095,3.2045,3.2113,3.2244,3.2255,3.2099,3.2098,3.2096,0,3.1776,3.1848,3.1912,3.1928,3.1958,3.1988,3.2002,3.2026,3.205,3.2082,3.2097,3.2136,3.2155,3.2184,3.2182,3.2151,3.2252,3.221,3.2252,3.2251,3.2271,3.2269,3.2402,3.2292,3.2292,3.2292,3.2291,0,3.1891,3.1948,3.1949,3.1988,3.205,3.2046,3.2107,3.2117,3.2138,3.2176,3.216,3.2196,3.2194,3.2229,3.2228,3.2284,3.2295,3.2295,3.2293,3.2294,3.2293,3.2303,3.2295,3.2295,3.2294,3.2294,3.2293,0,3.1996,3.2,3.2067,3.2089,3.2095,3.2139,3.2157,3.2192,3.2197,3.2246,3.2257,3.2264,3.2305,3.2307,3.2355,3.2353,3.2419,3.2414,3.241,3.2407,3.2447,3.2441,3.2588,3.2604,3.2488,3.249,3.249,0,3.2066,3.2109,3.2134,3.2158,3.2173,3.2213,3.2237,3.2233,3.2258,3.2289,3.232,3.2359,3.2389,3.2455,3.2464,3.2499,3.249,3.2539,3.2495,3.2492,3.2484,3.2479,3.2481,3.2546,3.2548,3.2549,3.255,0,3.2188,3.2186,3.2222,3.2256,3.2285,3.2312,3.2338,3.2358,3.2357,3.2386,3.2426,3.245,3.2497,3.2534,3.2567,3.2579,3.2562,3.2564,3.2574,3.2573,3.2567,3.2565,3.2428,3.2559,3.2558,3.2558,3.2557,3.2557,3.2274,3.2308,3.233,3.2368,3.2386,3.2409,3.2441,3.2449,3.2483,3.252,3.2516,3.256,3.2581,3.2624,3.2639,3.2671,3.2654,3.2671,3.2674,3.2677,3.2679,3.2565,3.2678,3.2678,3.2678,3.2677,3.2677,0,3.2389,3.2401,3.2437,3.2471,3.25,3.2483,3.2509,3.2533,3.2572,3.2594,3.2623,3.2667,3.2702,3.2713,3.2746,3.277,3.2763,3.2778,3.2774,3.2776,3.2695,3.268,3.2783,3.2783,3.2783,3.2783,3.2783,3.2783,3.2453,3.2508,3.2509,3.2572,3.2584,3.2626,3.2641,3.2661,3.2677,3.2727,3.2755,3.2762,3.2778,3.2811,3.2841,3.2843,3.2854,3.2871,3.287,3.2793,3.2782,3.2772,3.2757,3.2875,3.2875,3.2947,3.2948,3.2948]}]]